Theta_e
352 354 352 352 352 349 345 341 319 325 323 315 316 319 317 329 330 326 325 328 323 332 334 333 331 330 328 325 328 330 329 326 327 317 315 334 349 352 354 356 356 357 358 359 361 362 363 363 361 362 362 363 363 363 364 363 363 363 364 364 364 364 364 364 364 364 364 364 364 363 362 362 362 362 361 362 361 361 361 362 363 362 362 362 361 361 362 363 363 363 363 362 362 361 361 361 362
350 351 350 350 347 348 333 341 323 319 319 315 317 322 322 328 327 324 323 326 327 332 332 332 334 336 334 334 333 332 330 334 336 331 337 345 350 351 355 356 357 355 356 358 360 361 361 363 361 361 361 362 364 364 364 364 364 363 363 363 364 364 363 363 364 364 364 364 363 363 363 363 363 361 360 360 360 360 360 360 362 361 361 361 360 361 362 362 363 363 363 362 362 361 361 361 362
346 347 346 350 349 346 340 337 317 318 314 311 316 322 329 324 324 326 330 331 335 334 335 335 336 336 333 334 329 330 324 336 336 338 339 347 342 347 355 357 357 357 356 358 359 359 361 361 363 361 362 362 364 364 363 363 363 363 363 363 363 364 364 363 363 363 363 363 363 363 363 363 364 362 361 360 360 360 360 361 361 361 361 361 361 362 363 363 363 362 361 360 360 359 358 359 361
347 349 345 349 336 344 329 327 320 317 313 315 316 324 325 325 325 330 334 336 334 334 334 332 332 337 332 328 330 333 331 332 337 338 338 343 346 351 354 356 359 357 357 358 359 359 361 362 362 362 362 363 364 365 363 363 363 363 363 364 363 363 363 363 363 363 363 362 362 362 362 362 362 362 362 361 360 360 360 360 360 359 359 359 360 361 363 363 362 362 362 360 360 359 357 360 361
346 349 352 345 337 327 327 323 322 320 313 317 315 323 326 328 328 331 333 337 334 334 334 335 332 339 340 334 335 329 331 337 339 343 342 347 353 353 354 357 358 357 356 357 359 360 362 362 361 361 362 363 364 364 363 362 363 363 363 363 363 362 362 362 363 363 362 362 361 361 362 362 361 361 361 361 360 360 359 360 359 359 360 359 359 359 359 361 361 361 360 361 361 360 360 360 362
349 348 351 349 331 341 331 320 318 320 323 325 320 322 328 331 330 332 333 337 337 337 337 336 331 330 331 333 337 331 337 330 339 342 344 346 352 355 356 358 357 356 357 359 360 362 363 363 362 364 364 363 363 364 364 363 363 363 363 362 362 362 362 362 361 362 362 361 362 361 360 361 362 362 361 360 360 360 359 359 360 360 360 359 359 358 359 360 360 358 359 360 361 360 359 361 361
345 346 344 343 339 338 322 320 319 321 323 329 325 325 328 331 332 332 332 333 337 337 340 334 335 333 328 334 337 339 344 343 340 343 348 351 354 355 356 356 356 356 358 359 361 362 362 364 361 363 362 364 362 364 363 362 362 362 362 363 363 363 362 362 361 360 360 361 361 361 360 361 362 361 362 361 360 359 359 359 360 360 359 359 359 359 360 360 358 358 356 356 359 360 360 360 360
353 340 338 328 324 328 322 322 321 324 322 329 330 328 331 332 333 333 331 330 328 329 334 335 336 333 329 337 330 342 345 346 347 350 352 352 353 355 355 355 354 356 357 360 362 362 364 362 361 361 360 360 363 363 362 362 361 361 361 362 362 362 362 361 358 356 356 359 357 361 360 361 360 360 361 360 357 358 355 356 360 357 358 358 357 358 358 357 357 357 356 356 357 359 359 359 358
346 342 345 330 321 326 322 321 322 327 325 329 330 334 335 335 336 334 332 334 332 335 333 334 334 329 329 333 333 340 344 349 351 352 352 353 352 354 353 354 354 355 358 359 360 361 362 364 362 362 361 362 362 362 362 362 361 361 362 361 362 361 361 361 357 355 355 354 353 357 356 354 356 359 360 359 357 356 357 356 354 357 357 357 356 356 356 355 355 354 355 358 359 360 359 358 358
343 340 328 328 326 318 320 321 320 323 325 330 330 332 334 336 335 336 332 332 333 333 334 336 335 330 333 328 332 338 341 349 351 349 352 352 353 354 354 353 355 356 357 358 360 359 362 362 362 362 363 363 362 362 362 362 362 361 362 361 362 362 361 359 358 359 358 355 354 354 356 357 355 357 357 357 356 356 355 355 354 352 356 354 356 355 354 355 354 355 355 360 361 359 357 357 357
333 339 338 324 321 319 318 318 321 325 326 330 331 336 337 338 336 334 335 333 335 333 333 336 331 330 332 331 334 346 348 350 347 346 351 351 354 353 353 356 357 357 356 357 359 360 362 364 361 362 363 362 362 362 362 362 362 361 362 362 362 361 359 358 358 357 355 354 357 354 355 356 355 355 355 355 355 356 355 357 355 355 357 357 355 356 355 355 355 353 356 358 360 359 358 358 357
328 329 331 320 319 319 320 319 321 323 327 329 328 336 338 337 337 332 332 330 332 331 331 335 330 335 329 329 332 342 346 347 347 349 351 353 352 354 354 355 356 357 358 358 359 360 363 364 361 364 362 362 362 362 362 361 362 362 360 362 361 360 359 358 357 355 355 355 358 356 356 355 354 356 356 356 356 356 356 356 353 354 353 355 356 356 355 357 356 359 359 360 359 358 357 355 353
329 333 327 323 320 323 324 321 321 323 324 327 329 335 340 337 334 334 335 334 333 331 330 337 336 335 325 328 338 342 341 344 348 350 351 352 352 354 355 355 355 356 357 359 358 360 362 362 361 363 362 362 362 362 362 362 362 361 361 360 362 361 359 358 356 355 356 357 354 356 356 355 355 354 356 357 356 357 357 357 356 357 356 356 355 355 356 361 361 360 359 359 359 357 356 354 352
332 334 328 320 326 325 323 321 324 319 321 329 334 337 339 336 337 337 335 331 332 332 336 338 336 336 330 332 335 336 338 346 348 350 351 352 353 353 353 354 355 356 357 357 358 360 359 360 361 362 363 363 364 363 361 361 361 360 361 362 361 360 358 357 358 358 357 354 354 354 355 353 355 355 355 357 358 357 358 357 357 356 357 356 357 358 361 360 359 359 359 359 358 357 356 354 353
332 340 331 324 322 323 325 320 321 321 321 331 335 336 337 339 338 337 336 332 333 338 339 342 338 332 324 328 328 334 341 346 349 351 349 351 352 352 352 353 353 355 355 356 358 358 358 360 360 362 363 362 363 364 363 362 360 360 361 361 361 360 358 358 356 355 356 355 354 352 353 353 355 355 356 358 359 359 359 358 358 356 358 358 359 360 359 359 358 359 358 358 358 357 357 356 355
339 336 331 321 320 321 322 323 326 323 322 333 335 338 336 337 340 335 338 341 334 340 337 330 339 335 333 331 333 340 345 347 350 349 349 349 350 350 351 352 352 353 356 356 357 358 359 359 360 360 361 361 361 362 363 363 361 361 360 360 360 359 357 357 356 357 356 355 354 353 353 356 355 355 356 358 358 358 358 358 358 359 358 358 359 360 359 357 357 357 357 357 358 359 359 357 357
343 336 324 322 319 322 323 324 324 319 328 333 336 335 331 331 340 341 345 342 333 334 336 337 334 340 336 337 341 344 347 349 350 349 348 347 348 347 349 350 351 353 356 356 357 357 358 359 359 360 361 361 360 361 360 361 360 361 360 360 359 359 359 358 357 355 355 355 354 354 354 359 355 354 359 355 356 357 356 358 359 358 358 358 358 357 357 357 357 356 357 358 358 358 359 360 360
338 327 322 319 324 323 328 326 327 332 329 331 333 336 333 330 336 338 341 337 337 337 336 338 340 341 343 343 345 346 347 347 346 345 344 344 345 344 344 347 347 348 351 353 356 357 358 359 359 360 360 360 360 359 360 360 360 359 360 360 359 358 357 356 355 355 355 354 354 356 360 360 359 360 361 357 360 359 357 358 357 358 358 358 356 355 357 357 357 357 358 360 360 361 361 363 363
331 328 325 320 326 329 334 333 333 332 331 333 335 337 336 333 336 338 332 331 333 332 333 336 335 339 342 344 345 345 346 345 344 343 342 341 342 341 342 345 345 347 349 352 354 356 358 359 359 359 359 359 359 359 359 359 359 360 360 359 358 358 357 356 355 353 352 350 353 359 363 360 360 361 362 360 360 360 357 359 358 358 359 359 357 356 355 356 356 354 355 359 361 361 364 365 364
334 329 324 326 330 334 335 335 335 338 336 333 334 336 336 336 337 340 331 330 332 329 328 332 332 333 337 340 343 343 344 343 343 342 341 341 342 341 342 343 344 348 349 351 353 355 358 357 358 359 359 360 358 358 359 359 359 360 359 359 358 357 357 354 353 354 355 356 357 361 362 361 358 358 356 357 359 360 358 359 359 360 360 360 358 356 357 357 355 357 358 360 360 362 365 362 361
335 329 325 328 334 331 335 337 338 338 338 335 335 336 334 337 339 337 332 328 330 332 333 332 331 333 337 340 341 342 342 341 341 341 341 341 342 343 343 344 345 348 351 353 353 353 355 356 357 358 359 359 358 358 359 359 359 359 360 358 357 357 355 354 354 357 357 359 361 363 361 357 356 357 357 356 357 358 359 359 359 362 362 359 359 362 362 360 361 364 362 360 361 362 360 361 361
335 330 333 334 334 333 338 339 340 337 340 337 336 331 332 341 340 335 333 328 326 332 335 336 337 337 338 339 340 342 341 340 339 340 340 340 341 341 343 345 348 350 352 350 351 353 354 356 357 358 358 358 358 359 359 360 359 358 358 358 356 354 355 356 357 359 359 361 362 362 360 358 357 355 356 357 356 356 356 357 360 362 364 363 364 363 363 363 362 362 362 360 360 361 360 360 360
326 331 333 334 334 336 339 338 339 339 338 335 333 336 338 337 335 336 335 334 336 340 340 339 340 340 342 342 342 340 340 339 339 340 341 340 342 343 344 345 345 347 350 350 352 353 354 355 357 357 356 357 358 360 361 360 359 359 359 357 355 354 356 359 359 360 361 362 363 363 361 358 358 358 358 358 357 357 356 357 360 363 361 361 362 361 361 361 360 359 360 360 360 357 357 360 360
332 327 332 333 335 334 340 338 340 339 339 336 340 340 337 335 330 338 335 337 339 341 341 341 342 342 343 341 341 340 340 340 339 341 343 342 343 343 344 345 347 349 350 349 351 352 353 354 357 357 356 357 358 360 360 359 360 359 357 359 358 357 358 359 358 360 363 362 363 363 362 360 359 358 359 358 358 359 357 358 360 359 358 361 361 362 359 359 359 359 360 360 359 358 355 356 356
328 326 332 334 336 336 338 339 339 340 340 340 340 336 336 337 335 337 335 338 339 340 342 341 341 341 342 341 341 341 341 340 340 342 343 344 344 345 346 347 348 349 348 348 350 351 353 355 356 355 356 357 358 359 358 359 359 359 359 359 358 360 360 360 360 362 362 362 362 362 361 358 358 358 358 358 359 359 360 360 360 358 359 360 361 360 360 359 358 358 359 358 359 359 357 357 357
331 329 334 335 333 335 337 338 339 339 340 340 336 334 336 338 340 335 337 338 340 341 341 340 340 339 340 340 341 341 340 340 341 341 342 344 345 344 345 346 348 347 348 350 349 351 353 355 354 354 356 358 359 357 358 358 360 359 360 360 361 362 361 361 362 360 361 361 361 360 360 360 358 358 358 359 359 359 360 360 360 359 359 360 358 359 360 358 358 359 359 359 358 360 358 357 357
335 334 335 334 334 335 337 336 336 339 338 339 334 333 334 337 338 326 337 339 340 340 339 340 339 338 339 340 341 342 340 340 341 342 342 343 344 344 345 346 346 347 350 349 350 351 354 354 354 356 357 359 360 357 357 358 360 359 359 360 361 360 361 362 362 361 361 360 360 362 362 362 359 359 358 359 360 359 359 360 359 359 359 359 362 362 362 362 361 361 360 360 361 362 358 357 357
336 335 334 333 334 335 336 337 336 337 334 339 337 333 335 335 335 329 334 339 340 338 337 338 338 338 339 340 341 342 342 342 342 342 340 341 342 343 345 346 347 349 349 349 350 354 353 353 353 355 356 358 359 357 358 357 359 359 359 360 358 359 362 360 359 359 359 360 361 361 362 362 362 360 362 360 358 357 358 358 359 359 358 362 364 362 361 363 363 363 365 365 363 364 360 359 360
335 334 327 329 331 330 334 334 336 338 333 338 338 332 329 331 329 334 336 339 339 338 336 337 337 338 339 340 340 341 342 342 343 341 341 343 344 345 345 348 349 349 351 351 352 353 352 354 354 356 357 359 359 357 356 356 357 358 358 358 359 358 358 359 358 358 359 361 362 362 363 363 364 362 362 361 359 357 357 359 357 361 361 362 362 362 363 364 363 362 363 364 365 362 357 357 357
335 332 329 326 326 325 330 335 337 335 336 339 338 316 322 329 332 334 337 337 338 336 335 336 337 338 339 340 340 340 342 343 342 342 343 344 345 346 346 349 351 350 352 353 353 353 355 355 355 356 357 357 358 357 358 356 357 358 359 358 360 359 359 357 358 359 359 359 361 363 363 363 363 363 362 362 360 357 359 359 359 359 360 362 362 363 361 361 361 361 360 360 359 358 354 356 354
325 329 330 323 321 320 329 331 334 331 335 337 335 319 324 329 332 335 337 338 336 333 334 335 336 336 338 338 339 339 341 343 342 343 344 346 346 347 348 350 352 352 354 352 352 354 355 355 355 355 356 357 357 359 357 357 358 357 357 359 359 360 359 358 357 358 358 359 361 361 362 363 364 364 365 363 360 359 356 357 358 357 361 362 361 361 361 361 361 360 360 358 358 358 355 358 355
328 321 318 323 319 322 328 332 333 327 331 335 330 319 324 329 331 336 338 337 337 334 334 334 335 336 337 338 339 339 340 343 343 343 344 345 346 347 348 350 352 353 353 353 353 355 354 356 357 355 356 356 358 358 358 358 358 358 358 358 359 359 358 358 358 358 359 359 360 361 364 365 365 365 365 365 361 359 357 357 357 361 363 361 361 362 363 361 362 362 362 360 356 353 357 355 358
325 320 318 317 321 321 323 329 332 332 331 332 328 321 325 327 332 336 337 336 336 334 333 333 335 336 337 337 338 339 340 341 343 343 344 345 347 348 350 351 353 354 353 354 354 355 355 355 357 355 355 355 357 357 359 359 359 358 358 357 356 359 358 357 358 360 360 360 361 359 363 365 365 364 365 364 362 359 358 357 357 360 363 360 361 361 361 362 363 358 364 365 364 360 357 353 356
319 319 318 320 319 320 319 328 332 332 330 325 329 326 326 329 333 336 335 336 335 333 332 334 335 337 338 338 338 339 339 340 340 343 344 346 347 349 350 353 354 355 356 355 356 355 354 355 356 357 357 356 358 357 358 358 359 358 358 358 359 357 358 358 358 359 359 359 360 360 363 365 366 366 365 364 362 359 359 358 359 361 362 363 361 362 362 363 364 362 362 365 364 363 358 355 353
316 315 317 317 321 322 320 320 327 330 329 325 326 326 326 329 332 334 334 336 336 334 334 335 335 336 337 337 338 339 339 340 341 344 345 346 347 349 350 353 354 355 356 355 357 358 357 356 357 358 357 357 357 359 359 358 359 359 357 356 356 356 359 359 358 358 358 360 359 361 364 364 366 366 365 364 363 360 360 359 360 362 362 362 363 360 360 362 362 362 361 363 366 363 361 360 359
319 318 318 320 317 319 320 325 330 330 325 324 324 324 325 327 331 333 333 334 333 334 336 335 335 336 336 337 337 338 339 339 343 344 346 346 347 348 349 352 354 355 356 356 358 357 357 356 357 358 358 357 358 359 358 356 357 355 352 353 353 354 357 357 359 357 359 359 359 360 363 362 364 365 366 365 363 361 358 359 360 361 362 363 361 359 359 360 361 361 362 360 361 361 362 362 360
318 319 318 319 320 321 324 327 330 332 326 323 324 327 327 327 329 332 333 333 332 333 333 333 334 335 335 335 336 337 338 338 342 344 345 346 347 349 350 352 353 355 356 357 356 356 357 355 355 355 357 358 357 356 355 354 353 353 353 351 352 354 357 357 356 357 359 360 362 360 364 362 365 366 367 366 363 362 361 360 362 362 363 363 363 362 362 361 365 364 363 366 359 358 356 358 358
319 318 317 318 319 318 324 326 330 333 326 322 325 325 326 328 330 332 334 332 330 331 332 333 333 334 335 336 335 336 338 340 341 342 343 345 346 348 350 351 353 352 355 356 356 357 358 357 355 355 356 357 357 356 355 355 355 354 354 353 353 353 354 355 354 356 357 359 365 366 365 364 365 366 370 369 367 364 362 360 362 362 364 365 365 365 365 364 363 362 361 359 362 358 356 356 356
308 315 315 313 318 324 326 327 330 329 326 322 324 322 324 328 331 332 332 332 332 333 333 333 333 333 335 335 335 336 336 337 339 340 342 343 345 347 349 351 352 353 354 355 357 357 357 356 358 358 356 356 356 357 357 356 357 358 357 355 353 353 357 358 355 358 361 359 363 365 367 367 366 367 371 370 368 365 364 362 361 364 365 365 364 363 364 362 361 359 360 358 357 360 359 360 362
305 308 311 310 320 318 315 323 326 323 323 322 323 322 324 329 331 330 332 333 335 338 337 335 335 334 334 335 336 335 335 337 336 338 339 342 344 346 348 350 351 352 354 354 355 356 356 357 358 358 357 358 358 358 359 360 361 361 360 358 357 355 355 358 360 360 360 360 359 362 365 367 365 366 367 368 368 368 367 363 362 362 366 367 365 363 363 361 362 361 359 360 361 354 350 352 358
302 307 307 314 319 320 320 320 322 323 325 328 324 320 319 323 323 325 331 335 334 334 335 337 336 336 337 338 338 337 336 337 337 337 339 341 343 345 347 349 351 351 352 354 355 355 355 357 359 360 358 358 358 359 359 359 360 358 358 358 358 358 357 357 356 356 358 359 358 360 360 365 365 365 366 367 367 369 369 367 363 364 365 366 366 363 362 360 361 361 363 362 361 356 349 351 356
301 303 305 314 321 320 323 323 321 318 317 324 321 311 313 320 323 324 328 330 330 333 331 331 333 334 336 335 336 337 337 338 337 337 338 340 342 345 348 350 349 350 352 354 355 355 356 357 359 360 360 359 359 360 360 359 358 357 354 352 351 351 352 352 351 353 353 355 353 357 361 363 363 365 366 366 366 367 368 368 366 364 363 365 364 362 363 364 363 362 363 362 361 363 360 353 350
300 302 307 310 321 322 322 321 320 313 310 318 325 312 308 319 319 324 326 327 328 332 331 331 333 334 333 334 336 336 336 335 337 338 339 339 342 344 347 348 349 349 352 355 355 356 357 358 359 360 360 360 360 361 360 360 359 358 356 354 353 352 351 353 357 357 356 357 360 358 361 363 365 363 364 365 365 368 369 368 367 365 363 364 366 365 363 362 362 362 364 364 364 366 364 356 351
300 304 307 312 321 322 321 321 320 318 322 323 323 318 311 311 318 325 327 325 326 328 330 331 332 333 333 334 335 336 335 335 335 336 338 340 342 343 345 347 349 349 352 354 354 356 357 359 359 359 360 360 360 361 360 360 358 358 357 356 355 354 353 355 358 360 361 362 360 360 360 361 365 365 364 366 366 366 368 368 368 365 363 362 362 363 362 363 365 366 366 367 369 368 363 358 354
303 304 311 320 319 322 323 321 318 319 317 314 317 320 310 310 318 325 326 322 323 325 328 330 332 333 334 335 334 335 335 335 335 335 337 339 341 343 346 347 349 350 352 353 353 355 357 359 359 360 360 360 360 362 360 360 360 359 358 356 356 357 358 359 360 361 360 363 360 361 362 361 364 366 366 365 366 366 367 367 368 366 363 362 364 362 361 363 365 364 365 365 365 367 364 361 361
305 306 320 316 317 322 321 319 317 317 313 308 313 318 309 310 316 319 324 322 321 324 327 330 332 333 334 334 335 335 335 335 336 336 337 339 342 343 346 348 349 349 351 354 354 355 356 358 358 359 359 360 361 361 361 360 360 360 358 357 357 358 359 361 360 361 362 364 360 361 363 362 362 364 366 367 367 366 366 367 364 363 362 361 362 362 362 363 364 365 366 365 367 365 366 363 358
311 311 317 317 317 320 320 320 319 315 306 308 316 317 313 306 315 317 317 319 324 326 328 331 333 334 335 336 336 335 334 333 334 336 337 340 342 344 346 346 348 349 351 352 352 353 354 356 357 357 359 360 361 361 361 360 360 360 359 358 357 358 359 360 359 361 362 362 360 359 361 362 362 362 362 366 366 365 365 366 362 362 363 364 363 363 363 360 360 362 365 367 368 366 362 364 360
313 311 313 312 312 316 314 313 314 307 302 310 317 316 315 304 311 320 325 327 328 328 326 328 330 332 334 336 336 337 336 333 333 336 337 339 341 344 345 346 347 349 349 350 350 352 353 355 356 357 359 360 361 361 361 360 359 360 360 360 358 359 360 358 359 359 361 360 360 359 362 362 363 362 364 362 362 362 366 364 365 364 364 364 363 364 365 363 362 364 366 367 367 367 366 364 362
309 311 310 303 304 306 301 306 302 301 302 308 314 317 311 310 316 318 324 327 328 330 330 329 330 331 334 335 337 338 338 333 332 336 338 338 339 341 343 345 347 348 348 349 349 350 353 355 356 356 357 360 361 361 361 361 360 360 360 359 360 361 361 361 360 360 361 360 361 361 362 360 362 361 362 361 361 363 365 365 365 364 364 365 365 366 365 367 367 364 366 366 366 365 364 364 361
303 309 306 303 300 298 295 300 303 303 306 311 314 319 310 316 318 322 322 326 330 329 332 332 332 333 334 334 336 338 338 334 334 335 336 340 341 341 343 345 346 346 347 348 349 351 352 353 355 355 357 359 361 361 361 361 361 362 361 361 360 361 361 361 360 359 359 361 362 362 360 359 360 360 361 362 362 362 363 364 366 365 367 367 366 366 366 367 368 366 366 365 363 366 366 364 363
301 310 311 304 305 300 296 300 297 300 304 309 318 311 309 309 314 320 324 326 327 329 331 333 334 335 336 336 336 337 339 336 334 336 336 339 341 342 343 344 345 346 346 347 348 351 353 353 355 356 357 358 360 360 361 361 360 362 362 361 361 362 360 360 360 360 361 361 361 360 363 361 359 362 362 364 366 364 364 365 365 364 365 367 367 366 365 366 368 368 367 366 366 366 366 365 362
303 306 312 308 305 312 302 306 305 304 304 305 309 309 313 314 321 325 328 329 329 330 330 333 333 335 336 335 335 335 338 336 331 334 336 339 342 343 343 344 345 346 347 347 348 351 351 353 355 356 356 357 358 360 360 360 361 361 362 362 362 362 363 362 363 364 363 362 363 362 364 365 364 364 367 367 367 365 364 363 365 364 367 366 368 368 367 365 368 367 367 367 365 363 365 365 364
300 302 302 306 314 313 306 307 308 308 305 304 312 310 313 319 320 325 327 328 330 329 330 332 333 334 335 334 335 336 338 340 333 332 335 339 341 342 342 344 344 344 345 346 349 351 352 353 354 355 356 357 357 360 360 361 362 361 362 361 361 362 361 360 359 360 358 361 363 363 361 362 364 367 366 367 367 367 365 365 364 363 367 368 367 368 367 367 368 367 364 368 365 364 366 365 364
302 298 304 309 312 313 307 300 305 304 299 302 308 306 310 308 307 324 325 326 326 330 330 332 335 335 333 334 336 338 340 343 338 334 336 339 341 342 342 343 344 344 345 346 351 351 353 354 354 354 355 355 356 357 358 360 360 360 361 361 362 362 360 360 359 360 361 362 362 363 362 363 362 362 364 362 367 367 368 367 367 367 366 366 366 366 367 367 368 366 366 368 365 368 366 366 365
305 303 310 302 299 299 307 306 297 298 298 300 305 308 310 312 311 317 321 322 324 327 330 332 332 333 333 335 339 342 342 343 341 336 335 337 339 341 342 342 344 344 347 347 349 350 352 353 353 353 354 354 354 355 357 359 360 358 359 360 361 361 361 361 361 363 364 362 359 360 361 361 362 364 366 366 367 365 366 367 369 367 367 367 367 367 368 368 369 367 367 365 367 369 366 365 368
306 308 305 307 305 303 303 303 307 304 300 299 302 306 305 315 317 319 322 324 324 326 328 330 332 333 334 335 338 340 340 341 342 340 336 335 337 339 341 342 342 343 345 346 347 348 348 350 352 352 353 355 356 355 357 357 358 358 358 360 362 363 364 362 364 363 360 360 361 360 362 361 362 363 363 365 365 364 364 364 363 363 362 364 366 366 366 367 369 368 367 364 366 368 366 365 365
302 304 302 304 305 307 310 308 306 302 302 301 301 300 307 315 317 321 325 325 326 327 327 330 331 334 336 338 339 339 340 341 342 343 343 340 339 339 342 343 344 345 346 345 345 346 347 349 350 352 353 352 353 354 355 356 357 358 359 359 359 361 361 361 361 362 361 362 363 364 362 362 365 363 364 363 363 365 366 364 363 365 363 365 367 367 367 368 369 368 368 368 368 370 367 365 367
305 304 302 304 303 302 299 298 307 307 303 298 300 299 311 315 321 322 324 326 327 329 329 329 331 332 334 335 337 338 339 340 341 343 343 344 345 342 340 340 343 346 346 344 345 346 346 348 352 354 354 353 351 352 354 356 357 357 357 357 358 359 361 362 360 361 361 362 363 364 365 365 363 364 365 362 364 363 365 365 364 365 366 366 368 370 366 366 367 366 366 364 366 368 368 368 367
Wind_Speed
8 6 5 5 3 1 2 1 2 2 1 2 3 2 3 2 6 8 11 12 11 6 5 11 12 10 2 3 5 6 5 8 3 1 4 4 7 12 10 9 10 10 9 7 7 8 9 8 11 10 10 12 12 12 12 12 12 12 12 12 11 11 11 11 11 12 12 11 12 13 11 11 12 12 13 13 12 11 12 11 12 12 12 12 10 8 8 11 15 17 16 16 15 14 13 14 14
7 6 5 4 2 2 2 1 0 2 1 3 2 3 5 6 7 9 13 10 7 8 10 11 8 6 6 10 8 9 10 8 3 3 4 8 12 10 9 11 11 11 9 7 6 6 7 8 9 11 10 11 12 12 12 12 12 11 11 11 11 10 10 10 11 11 12 11 11 11 12 13 12 11 11 12 12 10 10 11 11 12 12 12 10 8 8 14 17 15 15 16 16 13 12 13 12
7 6 6 3 1 1 1 1 2 2 4 4 3 3 5 7 8 11 8 7 10 12 13 11 10 8 7 8 5 2 5 5 7 8 7 11 13 8 11 11 10 10 9 7 6 6 6 7 5 10 10 11 12 12 12 11 11 11 11 10 10 10 9 9 10 10 11 11 10 10 10 11 13 12 12 11 11 12 11 10 10 11 11 10 9 10 15 16 16 15 14 15 16 14 11 11 10
7 4 3 2 1 1 2 2 1 3 4 3 4 4 6 9 11 9 7 9 13 14 13 11 6 4 3 6 4 7 6 6 6 11 9 11 6 12 12 12 10 8 8 7 7 6 6 9 5 10 11 11 12 12 12 11 10 10 10 10 9 9 9 9 9 9 10 10 10 10 10 10 12 12 11 11 11 12 12 11 11 11 11 12 11 13 15 17 15 14 14 13 16 15 10 10 12
6 3 1 1 0 1 2 2 2 1 5 4 4 5 7 10 11 10 10 10 13 13 10 7 7 6 7 7 2 1 3 7 9 7 9 8 10 11 13 12 10 9 8 8 7 7 7 9 9 9 11 12 12 12 11 11 10 9 9 9 9 9 9 9 9 9 9 9 9 10 10 10 10 11 12 11 12 11 10 10 11 11 11 11 12 13 13 14 14 14 13 12 13 13 11 11 11
4 2 1 1 0 2 1 2 2 3 3 1 6 7 10 10 11 13 14 9 9 9 8 6 5 8 4 4 3 2 7 5 10 7 9 9 13 13 13 11 10 9 9 8 7 6 8 8 9 8 11 12 11 12 11 10 9 9 9 8 8 8 8 8 8 8 8 8 8 9 11 12 10 10 11 12 12 12 11 9 11 11 11 12 12 12 13 13 12 12 12 12 12 12 11 10 11
3 2 1 1 2 2 1 3 4 3 3 1 6 10 11 10 12 15 14 12 6 8 2 7 12 12 9 5 7 5 2 4 9 9 7 12 13 13 12 10 10 10 10 7 7 7 9 9 9 9 12 12 11 11 9 8 8 8 8 7 7 8 7 7 7 7 7 7 8 8 9 11 13 10 10 13 13 12 10 10 11 11 11 12 12 13 13 12 12 13 14 12 10 12 12 12 11
1 2 1 2 2 2 2 3 4 1 3 4 7 11 10 11 12 13 14 13 10 8 7 10 6 8 7 2 3 3 3 4 7 10 11 12 13 13 12 10 10 10 9 8 7 6 9 9 10 10 12 11 11 11 9 8 7 6 6 7 6 6 7 7 11 6 6 5 4 5 8 8 12 9 9 9 12 12 9 6 12 11 11 10 12 12 12 12 12 12 12 12 12 13 13 12 10
1 1 1 2 0 1 2 3 5 5 7 8 8 9 11 9 7 13 12 7 10 9 9 9 5 4 4 9 6 4 5 8 11 12 14 13 13 13 8 10 10 9 9 8 7 7 7 10 10 10 11 11 11 10 9 9 7 6 6 6 6 6 6 10 10 6 7 8 9 5 7 8 6 8 7 10 13 9 10 7 10 9 9 10 11 10 11 13 13 9 11 13 14 14 14 13 13
0 2 1 0 1 4 4 5 5 5 7 9 11 11 8 5 8 9 12 10 9 10 5 2 3 11 10 10 8 5 6 10 13 14 13 13 13 11 10 10 10 10 9 8 7 7 7 11 11 10 9 10 9 9 9 9 8 7 7 6 6 8 10 9 8 8 9 6 6 4 6 9 7 4 8 12 12 10 8 7 11 7 8 9 11 11 12 13 10 13 11 13 14 14 14 14 14
2 1 2 1 2 4 4 5 7 8 10 8 8 6 5 5 9 10 8 11 8 8 9 11 12 13 9 7 5 4 9 12 14 15 13 12 12 11 10 9 9 9 9 9 8 7 8 9 12 10 10 9 9 9 9 9 8 7 7 7 8 10 8 7 9 11 10 7 6 5 4 4 5 8 13 13 11 12 9 12 10 7 11 11 10 13 13 16 13 12 13 14 15 14 14 14 12
2 2 2 2 2 2 4 7 9 8 9 10 8 6 2 7 8 10 12 12 8 11 8 3 7 11 10 9 5 7 11 11 12 12 13 12 10 11 9 8 9 8 8 8 8 7 7 8 7 9 9 9 9 9 9 8 8 9 8 9 9 8 8 9 11 12 11 9 11 11 10 9 5 8 12 11 12 11 10 11 11 11 10 7 10 10 11 14 15 15 15 15 15 15 16 15 12
2 3 2 1 2 2 6 8 8 11 10 8 10 4 2 5 7 10 10 11 9 10 7 2 15 4 8 8 7 10 12 12 11 11 12 10 10 9 9 9 9 9 8 7 8 7 7 7 6 6 8 10 9 8 8 9 9 9 10 10 11 11 12 12 13 11 11 11 13 11 6 6 7 9 12 12 11 11 11 12 11 13 14 10 8 12 11 14 16 17 16 16 15 15 17 15 13
2 2 2 2 0 3 5 7 9 10 8 8 5 5 3 5 4 8 11 11 7 5 6 12 6 9 13 10 9 10 10 12 12 11 9 10 9 9 9 8 9 9 8 7 7 7 6 6 6 6 6 6 7 7 8 9 10 10 11 12 12 13 12 12 13 13 12 12 10 9 7 6 7 9 12 11 11 12 12 12 11 11 12 12 13 10 13 14 15 16 16 15 15 15 15 16 12
3 1 2 1 4 4 4 8 10 9 9 8 6 6 6 5 6 6 8 12 8 8 9 6 8 5 8 12 10 11 12 13 12 11 9 9 9 9 9 8 8 8 7 7 7 7 6 6 6 6 6 6 7 6 6 8 10 11 12 12 14 14 13 13 14 12 12 11 8 11 10 9 10 8 10 11 12 12 13 12 11 10 10 11 12 12 13 14 13 15 15 14 14 14 14 15 14
1 2 1 2 5 5 4 5 8 9 8 8 8 7 11 8 4 6 4 3 9 8 6 6 1 3 12 7 14 15 16 14 12 12 11 11 10 8 8 8 7 7 6 6 6 5 5 6 6 6 6 7 6 6 7 6 10 12 12 12 12 13 13 13 14 12 12 11 9 11 9 4 7 6 11 9 12 13 11 10 12 11 10 11 12 11 13 14 13 13 14 13 11 12 13 12 10
2 2 0 1 6 4 6 6 10 8 11 9 8 8 8 8 5 7 5 10 14 7 5 5 3 7 10 11 17 17 16 14 14 13 12 10 8 8 7 7 6 6 5 6 5 5 6 6 6 5 6 7 7 6 6 7 8 10 10 12 13 12 12 14 14 12 11 10 8 11 7 5 7 4 6 7 9 9 10 11 12 12 11 11 12 11 13 14 12 12 12 13 11 10 10 12 11
2 1 1 1 1 4 5 7 7 7 12 11 10 7 12 12 8 9 11 10 10 10 10 9 10 10 13 16 17 16 16 15 14 14 12 10 9 8 8 7 8 7 6 5 4 5 5 5 6 5 5 7 6 5 4 5 6 7 8 8 8 9 10 10 9 7 7 6 9 8 5 4 5 4 4 6 7 9 9 12 11 11 11 12 12 10 12 13 13 10 10 11 10 9 9 6 6
2 1 1 1 1 3 2 4 5 10 11 12 10 8 10 12 13 8 8 11 12 12 10 11 13 13 15 16 16 16 16 15 14 13 13 13 11 11 10 8 8 8 6 5 5 5 5 5 5 5 5 6 6 6 5 5 6 6 7 8 8 9 9 8 8 8 6 6 5 7 4 5 5 4 4 6 7 12 10 13 12 12 12 12 11 11 12 13 14 11 5 8 8 9 6 5 5
3 2 1 1 1 3 2 6 6 3 14 14 12 10 10 12 9 8 11 13 11 13 12 12 14 17 17 17 17 16 15 14 13 14 13 13 11 11 10 11 9 8 7 5 5 4 4 4 5 5 5 5 5 5 5 5 5 5 5 6 6 6 6 7 7 7 6 5 3 5 5 5 6 5 9 11 10 7 9 12 12 12 12 12 12 9 11 12 13 13 8 7 6 4 4 4 5
2 2 1 3 2 2 4 5 6 10 12 12 11 12 11 9 8 8 13 13 8 8 12 17 17 19 19 18 18 16 15 14 13 12 12 12 11 9 9 9 8 7 6 5 5 4 4 4 5 5 5 5 5 4 5 5 5 5 5 5 6 5 6 6 6 6 6 4 5 5 6 5 4 4 6 6 7 7 6 6 5 5 6 7 6 8 7 7 6 5 5 4 4 4 4 4 4
1 2 2 4 1 2 3 5 9 11 10 11 11 14 11 8 8 10 13 8 8 9 10 13 18 19 20 20 18 15 15 15 14 13 12 12 12 11 9 8 7 6 6 5 5 5 5 4 4 4 4 4 5 4 4 5 5 5 5 5 6 5 5 5 5 6 6 5 4 4 5 6 5 5 6 7 7 7 7 6 5 5 6 6 6 6 5 4 4 4 4 4 4 4 5 4 4
1 1 2 2 3 2 3 6 9 12 11 11 12 10 11 9 8 9 4 3 7 9 10 13 15 18 17 16 17 16 15 14 14 13 12 12 11 10 9 8 8 7 6 5 5 5 4 4 4 4 4 5 6 5 4 4 4 5 4 6 6 5 4 4 6 6 6 5 3 2 4 5 5 5 7 8 7 7 7 6 5 5 6 6 5 5 5 5 4 4 4 4 4 4 5 4 3
4 3 5 7 3 6 2 6 9 9 12 10 8 11 10 11 11 6 4 5 11 12 13 15 16 16 17 17 15 15 14 14 12 11 11 10 10 9 9 8 7 6 6 6 6 5 5 5 5 5 5 5 5 5 4 4 4 5 5 6 5 6 6 5 6 7 6 4 2 1 1 4 5 6 7 7 7 6 7 6 6 6 6 5 5 4 4 4 4 4 4 4 4 4 4 4 4
5 3 5 3 5 4 6 9 9 10 10 10 11 10 8 7 9 8 5 9 13 14 15 17 17 17 16 15 15 13 12 11 11 10 8 6 7 8 7 6 6 6 6 6 6 6 5 5 5 5 5 6 5 5 5 4 5 4 5 5 5 6 4 5 6 6 5 4 3 2 2 3 4 5 6 6 6 6 6 6 5 6 5 5 4 5 4 4 4 3 3 3 3 3 3 3 3
7 1 5 5 6 6 6 9 10 10 7 10 11 9 6 7 10 6 7 10 14 16 17 18 18 17 16 14 14 13 12 12 11 10 9 7 7 8 8 7 6 7 6 6 6 5 5 5 6 5 5 6 5 5 4 5 5 4 4 4 4 4 4 5 5 5 4 4 4 3 3 3 4 4 5 5 5 6 6 6 5 5 5 4 4 4 4 3 3 3 3 3 3 2 2 3 2
6 7 7 7 8 8 6 9 9 9 9 8 11 10 7 2 2 5 7 11 15 17 17 17 18 17 15 13 12 11 12 12 12 9 8 7 7 8 8 7 7 6 6 6 6 5 5 6 5 5 6 6 5 5 4 5 4 4 4 4 4 4 5 4 4 4 4 4 4 4 4 4 4 4 4 4 4 5 5 5 5 4 5 4 4 4 3 4 3 3 3 3 3 2 2 2 2
10 13 11 8 7 6 7 8 9 8 5 3 11 10 6 3 1 6 11 12 15 17 17 17 16 15 13 13 12 10 9 10 9 10 11 10 8 8 8 7 8 7 7 6 5 5 6 6 6 6 6 6 5 5 5 4 5 4 4 4 5 5 5 4 4 4 4 4 4 4 4 4 4 4 3 3 4 4 4 4 4 4 4 3 3 3 3 3 3 3 3 3 2 2 2 2 2
11 9 8 6 7 6 5 6 6 5 5 5 7 11 7 4 5 9 13 13 14 16 17 17 16 14 13 12 11 10 9 10 9 9 10 8 7 7 9 8 8 8 5 6 6 7 7 7 6 6 6 6 5 5 4 4 4 5 5 4 5 5 4 4 4 4 4 4 3 3 4 4 3 3 3 2 2 3 4 3 4 3 3 3 3 3 3 3 3 2 3 2 2 2 2 3 2
7 2 7 7 5 5 2 1 3 6 6 7 3 5 6 6 7 10 12 13 14 15 15 16 14 13 12 12 11 11 9 9 10 9 9 8 8 8 9 9 9 7 6 5 7 8 6 5 5 5 6 6 6 5 4 4 4 4 4 4 5 5 4 4 4 4 4 3 3 3 3 3 3 3 2 2 1 2 3 2 3 3 3 2 2 2 2 2 3 3 3 2 3 3 3 4 3
5 5 3 3 6 4 3 2 6 7 4 3 2 3 6 7 9 11 11 14 16 14 15 15 14 13 12 12 10 10 11 9 10 10 10 9 8 7 8 8 9 8 6 7 8 9 8 6 5 4 6 6 6 5 5 4 4 4 4 3 4 4 4 3 4 4 4 3 3 4 3 3 3 3 2 1 1 1 2 2 2 3 2 2 2 2 1 2 3 3 3 3 3 3 3 3 3
5 6 3 2 3 5 5 2 3 5 4 1 1 1 4 9 10 11 12 13 14 14 14 15 14 12 12 11 11 10 10 10 10 10 10 10 9 8 8 9 9 8 8 8 8 8 8 8 7 6 7 6 6 5 5 4 4 3 3 3 3 3 3 3 3 3 4 3 3 4 3 3 3 3 2 1 1 1 1 2 2 2 2 1 1 1 1 3 3 3 4 4 4 4 4 3 2
4 3 4 5 3 5 4 4 3 2 6 3 3 3 7 6 10 11 13 14 13 13 14 14 13 13 12 11 10 10 10 10 10 9 10 9 9 8 8 8 8 9 8 8 9 8 8 8 7 7 7 7 6 5 5 4 4 4 3 3 3 3 3 3 3 3 3 3 3 3 3 3 3 2 2 2 1 1 1 2 2 2 1 1 1 1 2 3 3 4 3 3 3 3 4 4 4
6 1 3 3 5 6 3 5 6 5 8 6 3 2 3 6 14 10 14 14 13 12 14 14 12 11 11 10 10 11 10 10 11 10 10 10 8 9 8 8 8 8 7 8 9 9 8 7 7 6 6 6 5 5 5 5 4 4 4 3 3 3 3 2 2 3 3 3 3 3 2 2 2 2 2 2 1 1 2 2 2 1 1 1 1 2 2 3 3 3 4 3 3 3 3 4 5
8 5 4 4 3 6 1 6 8 8 8 8 5 2 4 8 13 11 15 15 12 13 14 14 13 12 11 10 10 11 10 10 11 10 11 10 10 9 8 8 8 8 6 8 8 8 7 7 6 6 6 6 6 6 5 4 4 3 3 3 4 3 3 2 2 2 3 3 2 2 2 1 1 1 1 1 1 2 2 2 1 2 1 1 1 2 3 3 4 4 5 4 3 3 2 3 4
7 6 1 3 5 7 4 4 7 10 9 7 8 4 5 10 12 11 13 16 13 12 12 12 11 11 11 10 10 10 10 11 9 11 10 9 9 9 8 8 7 7 6 7 8 8 8 7 7 6 6 6 6 6 5 4 4 4 4 3 4 4 3 3 2 2 2 2 2 2 2 1 1 0 1 1 1 1 2 2 2 1 1 1 2 2 3 3 4 5 5 5 5 3 2 3 3
8 9 6 4 4 4 3 6 8 10 8 6 7 5 7 10 13 12 11 13 14 13 12 11 11 11 11 11 10 10 10 11 9 10 11 10 10 9 8 8 8 8 7 8 8 8 9 8 8 8 7 7 6 6 6 6 5 5 4 4 3 4 3 3 3 3 3 2 2 1 1 1 1 0 1 1 1 1 1 1 1 2 1 1 2 3 3 4 4 4 4 3 5 5 4 4 4
7 7 5 3 5 4 4 5 9 9 5 5 4 5 6 9 12 12 10 13 16 16 14 13 13 12 11 11 11 11 10 8 8 9 10 10 9 10 9 8 9 10 8 9 9 8 8 9 9 8 7 8 7 7 6 6 6 5 4 4 3 3 3 3 3 3 3 3 3 2 2 1 1 0 0 1 1 1 1 1 1 1 1 2 2 3 4 3 4 4 4 3 3 5 4 5 5
4 5 6 4 3 6 4 4 9 6 3 2 5 7 6 9 12 11 12 13 11 14 14 14 14 14 11 11 11 11 10 9 9 9 10 10 11 11 9 9 9 10 10 10 9 8 9 9 8 8 8 8 7 7 6 6 5 4 3 2 3 3 2 2 2 2 2 2 3 3 2 2 2 1 1 1 1 1 1 1 1 1 1 2 2 3 3 3 3 4 4 4 4 2 2 3 3
3 3 5 6 8 8 4 4 4 1 1 3 7 7 4 6 9 11 10 10 6 2 9 12 12 14 13 13 12 11 12 10 11 10 11 11 11 11 9 9 9 9 8 9 9 9 8 8 9 9 8 8 7 7 7 5 5 4 2 1 3 1 2 2 2 2 2 2 3 3 3 2 2 2 1 1 1 1 2 1 1 1 1 1 1 2 3 3 3 3 3 4 4 3 4 4 3
2 3 2 4 9 4 5 8 7 5 1 3 7 4 0 5 8 9 12 10 6 5 5 7 9 11 12 11 11 12 12 12 11 11 11 11 11 12 11 10 9 9 10 10 10 9 7 10 9 9 8 8 7 7 7 6 5 5 3 3 3 3 2 3 3 3 3 2 2 3 3 3 3 2 2 1 0 1 1 1 1 1 1 1 1 1 2 3 3 3 3 3 4 5 4 4 2
3 4 4 4 9 6 7 14 12 7 5 6 9 4 5 7 10 13 12 10 11 8 7 10 11 11 11 12 13 12 11 11 12 11 12 12 12 11 10 10 11 10 10 10 9 10 9 8 9 9 7 7 7 8 8 7 6 5 6 5 5 4 4 4 5 4 4 4 4 3 3 3 4 3 2 1 0 0 1 1 1 1 0 0 1 1 2 2 2 2 3 3 4 4 4 4 3
4 4 9 4 9 9 13 14 11 7 7 9 9 7 3 5 10 12 13 16 16 10 9 10 9 10 12 12 11 12 12 11 11 12 12 13 12 12 12 12 12 11 10 9 9 9 10 8 9 9 8 7 7 8 9 7 6 5 6 6 5 5 5 4 4 3 3 3 2 3 3 3 4 4 3 3 2 0 1 2 1 1 0 0 0 0 0 1 2 2 2 3 3 3 3 4 5
5 2 11 9 10 12 15 14 8 2 4 8 7 2 4 4 10 12 13 16 18 16 14 12 10 11 12 13 13 12 12 12 11 12 12 13 13 13 13 13 12 12 10 10 10 9 11 10 10 9 7 7 7 8 9 7 6 6 6 6 5 5 5 5 5 4 3 2 3 3 3 3 3 3 3 3 3 2 1 2 2 1 1 1 1 1 1 2 2 1 2 2 2 2 2 3 5
1 4 11 11 5 8 13 10 6 4 6 5 9 6 4 4 4 11 13 14 17 20 19 16 13 12 11 11 13 14 14 12 12 11 12 13 13 14 13 13 14 12 11 11 11 10 10 9 9 9 8 8 8 9 8 8 6 7 6 5 5 4 4 3 4 4 4 3 4 3 3 3 3 3 3 3 3 3 2 2 2 2 2 2 1 2 1 1 1 1 1 1 1 1 1 2 3
1 5 7 10 9 2 7 6 5 5 6 7 11 11 6 3 5 7 13 13 17 20 21 19 15 13 11 11 12 14 12 11 12 13 13 13 14 14 14 13 12 12 11 10 10 10 9 9 9 9 9 7 8 10 9 9 8 7 6 6 6 5 4 2 2 3 3 3 4 5 4 4 3 4 3 3 3 3 3 2 3 3 3 2 3 2 2 2 2 1 1 1 1 1 1 1 3
8 9 8 9 7 5 1 1 4 3 7 8 10 13 6 4 6 10 12 11 12 12 13 15 15 14 12 12 13 12 11 11 10 12 13 13 14 14 12 13 13 11 9 10 10 10 10 10 10 10 10 7 9 10 10 10 8 8 7 7 8 6 6 4 4 3 3 4 5 5 5 4 3 3 3 3 4 4 4 3 4 4 3 2 3 3 3 3 2 2 1 1 1 1 1 0 1
13 5 7 9 5 5 2 0 4 5 7 1 4 12 8 7 2 6 8 4 8 14 18 18 17 16 13 12 11 12 11 10 11 11 12 11 9 9 10 11 11 11 10 11 10 10 10 10 10 11 10 9 8 9 10 10 9 8 7 8 8 7 7 5 6 5 5 5 5 5 4 4 4 3 4 4 4 5 4 4 4 4 4 3 3 3 3 3 2 2 1 1 1 2 1 1 1
6 8 10 9 5 4 5 0 5 7 5 4 2 10 5 12 5 1 7 8 2 10 12 14 15 14 13 12 11 10 10 11 11 10 10 10 11 11 11 11 10 10 11 12 12 12 11 10 11 12 11 10 9 9 10 10 9 9 8 8 8 6 7 7 6 6 5 5 5 5 4 5 4 5 5 5 5 6 4 5 5 4 4 4 4 3 3 3 2 2 1 2 1 2 2 2 1
7 11 11 10 8 8 6 5 2 4 2 1 2 9 8 3 3 2 3 6 6 1 6 11 14 14 13 11 10 9 10 10 10 10 11 11 11 12 12 12 12 11 12 12 12 11 10 10 11 12 11 11 9 9 10 10 10 9 9 8 7 7 7 7 7 6 7 6 5 5 6 5 5 6 6 6 5 6 5 5 5 5 5 4 4 4 4 3 3 3 2 2 2 1 2 2 2
10 6 9 7 9 7 9 7 9 5 2 4 6 7 3 6 3 1 3 4 2 4 4 7 14 15 15 13 10 9 10 9 9 10 12 12 13 14 12 12 12 12 13 13 11 11 10 10 11 12 11 10 10 11 9 10 9 9 8 8 7 7 7 7 6 6 6 7 6 6 6 5 5 5 5 5 5 6 6 5 5 6 5 5 4 5 4 4 3 3 2 2 2 1 3 3 3
9 8 2 6 10 4 6 5 6 5 4 4 7 4 0 2 1 2 2 2 3 6 8 7 12 14 14 11 13 12 11 11 11 11 12 13 13 13 12 12 12 11 12 11 12 11 12 11 12 13 13 12 11 11 10 10 9 8 9 9 9 8 6 6 5 5 5 6 6 6 6 6 5 4 4 4 5 6 6 6 6 6 6 5 5 5 5 4 3 3 2 3 4 2 2 3 3
7 6 12 5 1 4 5 2 3 5 1 4 4 4 3 2 4 2 2 2 1 5 10 10 11 13 15 15 15 15 14 12 11 11 11 12 11 12 12 13 11 11 11 12 12 13 14 12 12 13 12 11 12 12 11 10 9 9 9 9 9 8 8 8 7 8 8 7 6 6 6 6 5 4 4 4 5 6 6 7 6 6 6 5 5 5 5 5 4 4 3 3 4 4 3 4 4
8 9 8 6 1 3 3 4 3 5 7 3 5 9 6 3 4 3 3 3 4 6 10 12 11 13 15 13 13 13 12 10 11 11 10 11 12 13 13 11 13 14 15 14 13 13 11 11 12 13 12 12 11 11 11 10 10 10 9 10 9 9 8 8 8 7 7 6 6 5 5 5 6 5 4 3 4 6 6 6 5 5 5 5 5 5 5 5 4 4 4 4 4 3 4 4 4
5 4 12 11 5 8 1 3 6 7 7 5 3 4 6 6 5 3 6 6 7 8 9 10 12 14 15 12 10 9 10 9 9 10 10 10 10 11 11 12 14 13 12 12 11 11 10 11 11 12 13 13 13 11 10 9 10 8 8 10 10 9 8 7 7 6 6 6 7 6 6 6 5 5 4 5 5 5 5 5 5 5 5 5 5 5 5 4 4 4 4 4 4 4 4 4 4
3 3 10 2 4 6 8 5 1 4 4 5 4 4 6 7 3 5 7 8 9 9 10 11 11 12 12 10 10 9 9 9 8 8 9 11 11 13 13 12 13 13 13 11 12 11 12 12 11 11 10 10 10 11 10 10 10 9 8 8 9 8 8 7 7 7 7 7 7 7 7 6 6 5 5 6 6 6 6 6 6 6 5 5 5 5 5 5 4 4 4 4 3 4 4 5 5
5 7 7 5 0 3 0 2 3 4 5 6 4 4 5 2 2 1 6 8 9 10 11 10 10 9 7 9 10 9 9 8 7 7 7 9 10 11 11 11 11 10 10 11 11 13 12 11 11 12 12 12 12 11 10 10 9 9 9 9 9 8 9 7 7 7 7 7 6 6 6 5 5 6 5 6 6 6 6 6 6 5 5 5 5 5 4 4 4 5 5 5 4 4 5 5 4
9 9 9 8 6 8 10 6 2 1 4 3 7 8 2 3 0 2 6 7 8 8 9 9 9 10 10 9 10 11 9 7 7 7 8 8 8 9 10 10 8 8 9 11 11 11 12 12 10 10 10 11 12 11 10 10 9 8 10 9 9 8 8 7 8 8 8 7 6 6 5 5 6 6 6 6 7 6 6 6 6 6 6 6 5 6 6 5 5 5 6 5 5 5 5 5 5
Wind_Direction
150 132 137 139 152 186 181 158 180 121 231 83 137 177 102 148 125 127 118 135 132 135 97 118 128 138 151 167 103 82 78 150 9 253 87 90 144 142 142 134 141 142 135 130 126 123 110 100 112 112 118 116 111 104 101 97 96 95 95 95 99 103 103 105 106 107 109 109 112 116 112 109 110 110 114 111 107 110 107 108 105 104 102 95 89 83 83 98 92 88 91 92 93 92 87 89 88
144 137 125 143 166 241 151 238 208 131 84 136 128 150 121 132 153 132 140 144 130 139 132 129 122 80 92 105 117 122 67 41 12 75 96 125 138 138 136 141 146 143 139 130 125 110 114 110 115 122 112 111 108 104 99 96 93 93 93 97 98 101 105 107 108 109 110 114 114 119 129 128 120 119 115 116 115 104 105 106 105 105 101 97 94 99 105 96 90 87 88 95 93 91 90 88 91
144 148 141 172 151 303 116 214 189 149 145 150 132 120 132 144 136 134 127 117 118 125 127 116 97 88 109 126 122 305 108 52 106 122 119 143 139 151 146 143 141 136 136 134 130 119 121 114 112 111 113 118 108 104 101 99 96 95 95 96 98 99 101 103 107 110 113 115 117 116 117 118 122 123 120 120 111 116 113 105 109 106 100 98 94 97 99 87 85 90 88 90 95 89 89 104 107
149 159 144 173 128 289 149 167 70 168 166 138 129 139 154 141 131 123 115 114 125 135 130 133 110 349 159 106 74 86 84 101 114 133 132 159 144 147 146 141 134 137 134 135 134 125 122 127 128 120 126 113 110 107 105 102 100 98 99 97 98 100 104 106 107 111 114 116 120 119 119 115 117 121 121 122 113 116 116 116 110 107 103 97 93 89 87 89 89 90 96 96 102 109 119 108 97
144 134 64 15 94 203 195 119 138 192 170 166 144 142 143 140 126 123 120 123 135 139 134 116 106 68 66 76 39 325 99 105 130 142 140 139 133 140 144 140 140 138 135 135 133 129 125 124 130 131 124 120 113 110 106 104 103 102 101 100 100 104 105 107 108 112 120 123 123 121 114 112 105 116 123 122 118 117 116 118 111 105 103 99 97 93 91 87 91 95 94 92 98 108 110 92 84
112 127 359 39 342 345 251 174 150 147 72 92 141 137 139 136 130 127 124 114 128 128 118 102 120 147 108 33 7 117 131 128 147 135 149 140 141 140 140 140 141 136 132 135 137 137 128 137 123 120 115 107 110 105 104 105 107 104 102 102 104 103 103 107 111 114 118 124 126 130 128 124 119 116 119 121 123 129 123 116 108 106 103 103 101 94 91 94 98 97 93 93 99 103 102 86 79
137 152 161 114 253 208 231 151 129 120 73 234 122 135 140 135 131 132 129 113 94 96 79 110 115 117 101 112 88 74 14 102 153 144 158 141 138 138 141 142 138 134 134 138 139 133 125 128 128 122 115 118 116 103 104 103 99 100 99 100 102 101 104 103 114 114 115 130 136 131 131 128 133 127 120 125 125 118 126 116 117 116 108 104 104 108 107 110 109 101 95 88 106 109 100 88 74
88 296 162 149 243 207 116 98 113 142 84 130 116 131 135 135 140 140 138 139 146 145 121 126 123 87 91 180 112 78 92 130 112 132 136 142 140 138 144 142 140 136 138 140 138 126 127 129 121 123 112 114 111 109 106 99 90 86 90 94 95 97 99 105 72 31 34 89 126 111 126 127 105 102 109 94 94 115 117 125 120 113 111 112 109 113 110 105 101 95 103 133 123 109 104 97 85
62 300 156 239 182 153 110 120 105 88 115 122 121 120 126 134 150 142 138 116 107 108 128 139 139 119 109 109 86 106 108 118 123 127 138 139 142 141 144 146 142 138 140 139 137 134 131 122 123 114 118 111 106 111 112 104 103 101 99 97 92 92 93 93 103 125 107 41 359 88 74 68 70 120 123 108 98 103 102 97 85 91 113 111 101 101 108 100 105 122 140 132 115 111 106 97 83
198 17 333 220 270 140 131 121 128 121 122 131 132 133 131 145 138 145 126 123 122 120 92 87 119 113 132 104 111 119 120 125 128 134 137 141 141 139 144 147 143 142 139 136 133 132 124 126 119 115 109 104 106 106 104 106 108 111 106 98 92 79 67 57 68 70 76 91 95 359 81 91 115 142 95 75 81 102 96 104 113 138 109 109 121 126 121 124 121 138 141 114 104 97 91 86 82
321 150 257 226 162 137 145 120 114 123 124 126 114 116 115 129 131 131 119 111 127 119 118 109 99 120 122 91 72 96 123 127 139 138 140 142 143 142 142 149 147 143 140 135 131 129 131 123 126 123 112 106 105 103 101 104 106 111 101 93 82 80 83 82 75 60 48 42 50 90 77 81 80 76 80 108 117 111 138 128 118 119 124 132 137 134 129 117 138 112 110 99 94 89 84 79 79
288 318 205 93 92 136 139 130 125 118 123 135 126 134 117 129 126 122 128 125 127 127 133 164 131 132 108 118 108 128 131 137 138 136 141 142 146 144 142 147 146 138 132 129 128 127 124 124 124 116 112 108 106 101 102 103 104 101 102 93 94 92 89 84 77 76 68 48 44 38 30 59 74 95 117 108 114 128 122 106 106 117 107 118 118 115 101 110 103 97 90 94 97 96 90 84 76
282 306 1 48 97 143 122 128 134 137 138 146 139 134 138 139 145 131 121 117 132 127 129 140 139 155 114 117 120 129 140 144 139 141 142 147 145 146 144 143 143 136 130 129 126 121 120 120 117 116 106 107 102 99 106 102 107 106 94 96 90 86 84 77 75 76 73 60 52 35 44 60 82 75 86 101 105 109 106 107 115 124 131 127 114 107 113 87 87 92 92 91 93 98 98 93 85
264 32 309 82 246 134 141 132 142 143 150 134 129 126 107 110 108 125 123 118 121 105 103 129 139 121 106 116 132 144 144 145 143 143 146 144 147 148 145 141 141 138 131 133 127 122 115 111 110 106 106 98 95 96 103 105 90 86 85 80 81 80 79 79 74 77 79 74 68 78 58 64 65 88 101 109 108 105 108 106 108 111 118 119 110 95 82 82 85 91 93 92 95 101 105 108 123
290 53 317 58 138 139 129 148 158 151 141 150 132 139 111 75 113 123 118 112 81 109 117 113 129 158 167 155 154 156 146 152 143 142 143 144 146 145 144 143 139 135 137 134 128 121 117 118 112 104 98 97 95 96 91 79 84 77 78 79 77 82 79 75 80 80 84 81 84 84 54 51 64 78 100 97 97 98 102 107 107 102 108 108 105 103 92 86 87 85 88 98 111 115 126 136 154
181 293 315 154 153 160 154 153 153 154 146 154 136 124 102 96 92 119 30 73 123 124 145 127 301 297 148 154 146 142 144 147 147 146 146 146 145 145 146 146 144 141 135 136 126 119 123 122 113 109 106 103 100 96 91 89 85 84 83 82 84 84 83 79 83 85 90 89 83 72 62 85 82 74 82 80 90 94 95 105 105 112 106 100 100 104 99 93 86 89 92 89 94 112 123 125 121
167 230 284 140 157 186 155 166 162 160 141 137 144 146 123 122 91 59 98 119 127 123 98 86 54 126 132 124 132 137 142 141 144 147 146 144 149 152 151 149 149 142 139 130 123 132 128 122 115 113 110 102 98 94 85 84 76 83 92 87 83 84 87 93 88 84 90 91 86 81 80 74 80 65 84 95 90 95 103 102 102 103 103 104 101 101 102 96 95 93 94 88 86 93 103 106 117
248 301 92 207 121 177 159 169 165 116 148 143 155 148 135 131 123 114 108 103 104 98 89 91 95 89 106 116 127 137 141 145 149 150 152 150 159 158 159 155 158 153 146 132 137 140 131 124 121 118 115 104 106 99 93 88 92 89 90 88 84 81 81 86 85 84 68 70 85 89 85 91 97 99 97 96 101 104 105 103 100 109 117 110 106 102 102 103 94 86 79 88 94 97 105 106 93
252 338 338 304 240 48 184 143 127 147 149 150 145 154 143 136 133 153 131 127 120 109 110 116 110 107 113 123 130 139 145 149 154 155 155 158 163 162 161 157 157 153 150 147 141 144 134 126 130 129 112 114 111 105 99 99 99 90 91 91 91 90 93 86 86 81 78 80 72 86 104 89 89 100 104 109 97 92 94 96 105 111 107 108 114 118 108 104 94 81 106 109 103 106 100 96 95
209 273 7 341 345 13 102 153 138 128 142 147 145 150 141 141 137 152 141 142 136 134 136 129 134 133 138 138 143 146 150 151 157 159 160 161 162 161 160 160 158 158 153 150 140 145 145 142 134 129 123 121 116 110 110 103 99 102 98 100 98 98 96 92 87 94 92 92 101 95 97 100 101 99 95 92 94 86 88 90 93 99 102 104 108 104 105 107 124 148 141 112 105 96 92 95 88
112 236 343 351 351 104 64 140 130 135 145 138 138 142 133 149 138 153 139 138 146 144 152 150 151 149 147 147 147 151 153 155 158 161 160 160 159 161 162 162 159 153 149 141 140 150 157 151 149 133 126 123 113 109 102 104 107 107 105 106 103 100 99 95 100 104 102 91 83 89 91 92 107 109 106 103 94 93 89 100 99 100 108 113 137 122 130 135 139 113 118 108 93 88 83 74 73
252 277 354 336 310 62 83 135 132 136 132 129 133 147 144 134 134 146 157 148 166 163 160 154 150 151 151 151 152 152 155 157 160 162 164 163 163 163 162 159 147 146 142 155 150 158 164 161 157 140 134 129 116 108 109 116 122 117 112 107 103 97 102 119 134 120 106 84 88 96 111 120 116 111 109 105 101 103 107 108 111 122 126 124 130 115 108 108 106 99 91 86 81 81 71 62 67
294 98 286 22 357 61 77 130 129 133 134 135 148 138 137 154 135 154 154 87 120 134 148 149 146 147 148 147 149 155 156 159 162 164 164 167 166 166 160 155 156 157 158 156 154 163 166 170 160 151 140 132 116 114 115 126 114 114 116 122 115 112 122 142 115 100 90 96 110 135 142 131 124 114 110 106 104 105 106 113 125 128 116 110 109 105 98 92 84 84 73 70 64 66 72 72 76
273 9 46 65 81 85 75 129 133 132 132 131 125 140 142 141 138 157 99 106 127 132 136 141 145 146 148 150 156 157 157 159 161 163 166 166 168 163 156 155 156 153 161 158 163 167 173 173 163 158 146 140 127 128 128 126 123 127 125 127 129 147 158 127 101 92 100 113 130 162 157 123 119 106 98 99 106 112 115 119 112 103 99 92 87 82 89 83 82 76 70 62 56 49 56 62 67
221 252 101 146 91 81 105 132 135 116 104 118 133 132 130 143 129 143 103 133 131 132 137 142 147 150 153 151 153 155 153 154 158 159 161 159 157 153 155 151 156 161 165 165 167 172 174 167 172 167 158 147 145 147 140 136 124 129 133 143 136 146 122 107 98 108 118 129 135 150 141 102 96 92 88 92 99 97 97 98 94 88 83 82 87 80 73 74 73 67 63 60 52 43 43 54 39
205 147 131 138 112 103 92 113 121 115 114 133 117 100 91 99 119 85 130 136 135 135 139 145 150 155 157 153 152 155 157 159 159 164 166 158 158 160 161 166 164 174 169 166 168 174 173 173 179 172 168 166 155 156 141 136 127 134 140 135 119 121 105 102 122 129 130 140 137 120 107 100 88 88 87 85 87 87 88 84 82 75 74 68 76 80 72 69 63 60 55 49 43 37 22 36 4
152 123 120 113 120 122 114 119 119 120 126 142 125 123 111 102 232 125 141 138 138 139 141 148 154 158 159 155 154 158 158 160 164 159 158 163 164 173 168 171 178 175 171 172 170 174 174 180 176 176 172 173 159 153 144 136 129 137 145 127 128 125 122 127 135 134 138 135 125 121 109 101 102 98 96 85 75 76 78 76 73 75 74 68 65 74 68 57 52 47 41 34 34 19 24 18 2
124 112 105 107 107 114 115 116 129 130 91 112 118 107 111 118 29 141 150 149 147 141 145 153 157 158 160 157 158 161 161 160 161 167 169 171 177 179 176 179 180 175 180 175 170 173 175 179 175 182 177 170 164 149 148 147 143 144 151 145 140 135 144 147 142 145 141 128 130 124 109 105 102 102 96 85 78 82 82 76 75 73 69 64 64 62 61 52 50 49 51 37 26 356 19 17 2
137 136 103 113 120 112 132 127 140 153 112 114 91 109 131 163 132 139 147 152 151 145 150 155 158 159 161 159 159 167 170 168 169 177 178 178 177 181 182 180 177 177 180 173 166 174 170 173 172 184 183 171 172 159 150 156 152 155 154 150 134 143 150 151 146 140 137 133 133 128 119 113 104 108 107 88 79 85 83 81 82 69 76 69 68 62 59 50 57 54 58 39 21 3 19 25 2
155 91 128 134 142 142 114 153 142 127 113 114 168 173 178 144 124 147 150 150 151 146 154 157 158 161 163 163 163 171 175 175 180 183 180 179 182 184 186 180 179 177 169 171 169 173 163 169 173 182 184 177 173 162 148 155 169 155 155 147 144 149 162 160 144 138 141 139 133 133 128 111 106 107 115 107 94 97 91 75 78 81 67 57 65 57 66 50 51 43 37 32 33 10 24 24 15
184 127 186 152 162 154 117 178 158 125 137 101 327 165 165 145 138 148 157 154 153 156 159 161 159 162 165 169 166 173 180 186 184 184 183 182 183 187 189 180 179 175 165 171 176 169 166 166 173 180 182 178 176 165 160 157 168 166 156 149 147 162 155 163 149 145 144 140 141 134 134 120 113 107 94 74 62 45 83 86 75 75 57 49 57 50 31 56 48 45 32 21 37 24 28 36 16
151 172 178 153 208 130 133 94 199 146 166 39 234 148 151 159 151 157 158 162 158 155 162 164 162 162 166 168 171 175 183 188 189 187 186 185 186 187 189 184 179 178 176 170 166 168 169 169 174 179 178 182 183 174 162 161 163 164 159 156 154 169 156 156 152 152 143 146 150 135 137 129 121 117 119 131 90 67 67 79 74 69 60 71 60 42 22 49 42 43 36 21 25 33 13 35 35
182 265 164 172 186 143 159 157 217 61 142 120 296 138 135 150 158 156 163 163 163 157 164 168 165 165 166 170 173 177 181 189 190 189 187 187 189 192 188 185 182 181 176 168 165 169 172 169 177 177 177 181 183 183 167 162 158 161 166 170 168 170 167 154 152 160 156 155 158 139 136 131 114 124 134 158 146 115 102 104 104 82 90 70 56 39 42 37 27 48 44 34 13 3 2 28 39
187 242 194 153 179 155 166 120 179 157 164 159 203 125 92 143 161 150 170 169 166 162 165 169 167 166 168 170 174 176 184 185 190 190 186 187 187 190 190 186 181 180 175 172 169 169 173 172 177 177 172 179 175 184 175 170 166 157 169 170 176 180 175 161 149 164 166 153 164 149 140 134 121 123 134 156 146 115 102 94 86 78 88 66 48 39 37 34 41 32 36 27 12 353 6 22 26
174 171 168 167 164 187 124 179 168 163 173 182 146 92 121 149 157 156 173 175 171 166 166 170 168 167 170 177 180 178 184 189 191 190 185 187 186 188 191 184 182 180 178 177 169 170 165 169 175 175 176 180 175 173 169 167 152 157 158 175 165 179 177 166 152 168 163 164 165 142 157 167 123 129 125 154 159 127 121 105 89 68 57 57 36 34 41 38 34 29 23 32 5 360 6 14 10
159 178 226 173 186 189 206 177 162 181 167 169 167 165 141 157 164 156 170 179 179 172 166 167 167 169 174 180 182 181 187 195 191 188 185 182 185 185 186 182 181 180 179 173 175 175 170 167 177 179 178 182 174 166 165 173 173 170 168 167 176 182 181 168 171 167 164 171 153 171 154 169 138 124 149 130 128 97 96 94 91 95 80 54 49 39 35 33 20 16 28 18 9 24 59 12 12
180 162 164 204 180 162 181 186 169 180 165 177 174 156 158 169 175 163 156 173 185 179 172 171 170 173 180 185 184 182 185 197 187 184 183 181 181 182 184 179 179 176 174 176 185 176 172 172 178 185 180 182 176 174 177 183 181 172 183 190 180 174 177 169 175 168 168 165 143 168 146 164 150 171 148 157 125 111 76 78 100 105 113 78 61 42 26 21 22 17 16 359 7 19 40 19 30
188 154 150 165 205 190 176 180 167 172 205 160 176 163 161 177 177 166 154 172 187 186 180 178 176 180 181 187 188 185 188 193 180 177 183 179 179 180 177 178 178 178 180 180 184 181 174 175 178 180 180 186 188 184 181 189 190 188 183 182 182 169 175 183 174 180 168 147 157 159 161 121 126 176 147 167 150 152 126 131 120 108 95 76 54 42 31 19 23 28 17 13 19 13 32 11 19
166 198 164 200 177 106 102 142 161 159 229 176 183 196 183 179 179 168 174 181 184 192 185 182 179 182 182 189 192 186 188 190 186 185 180 184 179 177 180 183 186 188 179 182 183 178 178 182 180 176 185 190 193 188 183 190 193 191 195 154 183 156 193 198 178 143 160 164 154 154 143 136 153 167 181 160 146 159 147 139 131 96 64 56 54 44 36 29 30 36 27 15 2 33 31 35 16
164 151 162 189 168 174 146 162 135 55 204 187 182 202 188 165 175 180 183 180 155 101 185 187 186 183 186 191 190 192 193 190 193 188 183 182 177 178 182 184 183 183 178 182 183 182 181 186 186 183 185 191 194 192 193 183 169 161 164 149 151 179 170 172 181 168 185 186 170 165 160 154 174 178 159 143 139 149 171 160 132 106 77 57 40 30 19 36 38 59 28 16 358 358 40 45 28
183 212 179 154 172 205 161 157 156 153 13 192 166 178 197 207 193 197 193 185 164 166 156 171 183 192 189 189 197 200 198 192 195 192 187 181 179 183 185 183 180 183 184 184 185 183 187 184 181 179 179 186 191 192 190 184 164 172 175 142 154 144 145 174 191 192 195 191 199 193 174 172 179 199 176 192 343 120 155 167 155 111 81 62 12 3 21 30 33 48 34 6 7 359 18 19 39
181 219 210 173 178 152 125 145 150 174 192 200 188 193 230 192 214 200 189 191 197 183 183 186 184 187 184 193 199 198 202 194 193 192 186 183 186 184 178 177 186 190 191 189 187 184 183 181 177 175 174 181 187 186 186 183 178 175 182 181 175 179 178 185 199 196 188 193 200 172 165 179 187 199 195 221 314 15 156 159 158 139 110 99 323 357 20 33 60 30 45 0 7 16 351 3 30
223 194 185 177 177 154 149 160 164 177 201 192 215 231 201 166 207 207 190 195 200 187 199 194 185 183 187 192 197 198 197 194 197 195 188 189 188 182 179 183 191 196 192 183 183 183 183 180 178 178 176 176 179 182 189 181 173 179 185 191 190 186 182 187 198 202 194 182 199 178 175 175 189 204 193 204 205 177 173 161 164 185 140 314 339 258 286 332 47 29 19 17 358 359 354 10 17
216 95 158 180 162 158 167 170 197 153 74 124 181 221 274 219 212 206 193 199 202 202 201 201 194 192 190 192 195 198 197 196 193 195 189 190 185 186 187 188 192 197 185 179 179 178 182 181 179 181 177 174 174 178 183 181 177 180 187 195 195 197 195 179 183 194 197 193 198 199 179 188 185 203 200 193 212 203 187 169 172 191 221 267 274 265 312 2 11 29 23 359 351 2 9 16 9
305 134 165 137 163 174 173 184 197 175 167 162 199 202 237 242 118 185 190 197 206 210 207 205 199 196 192 189 193 197 201 197 195 191 191 190 187 192 190 189 194 189 182 182 181 177 179 181 183 182 180 175 171 174 177 185 186 181 186 194 198 202 202 184 180 184 193 196 206 194 199 192 190 198 210 209 203 216 206 194 182 206 226 240 256 265 264 303 322 338 28 342 347 24 9 26 12
103 125 155 137 145 203 190 206 192 185 221 212 203 193 232 223 135 180 191 208 210 212 210 207 200 196 193 191 194 196 195 196 200 196 193 192 191 194 195 192 183 187 185 178 173 171 175 177 183 184 185 181 171 174 180 184 188 183 187 194 200 196 195 183 193 183 190 191 206 201 200 201 198 192 198 212 215 214 219 210 216 222 234 246 255 263 284 285 269 266 308 320 324 230 44 336 34
103 143 130 113 113 104 86 184 216 194 231 239 191 190 222 270 171 183 181 214 213 205 213 210 202 199 196 195 194 192 191 190 195 199 196 194 195 194 188 188 188 180 176 172 174 174 174 179 182 187 190 185 174 174 179 183 187 190 193 194 200 201 194 192 192 198 191 193 210 205 203 203 198 195 199 193 216 218 220 223 232 228 244 246 245 242 252 258 235 217 237 302 270 210 188 188 90
151 157 137 111 87 109 162 344 357 223 234 51 169 183 197 236 136 194 190 102 191 197 203 198 193 195 194 195 194 193 188 186 191 190 196 189 179 184 186 189 181 176 168 173 178 175 176 178 180 186 189 188 182 180 179 184 186 190 196 194 198 201 195 194 205 207 201 207 210 210 210 208 204 201 208 208 209 214 216 225 230 236 237 243 240 237 253 255 243 233 250 283 268 206 213 220 318
192 161 160 153 134 137 196 130 201 210 231 35 239 161 194 238 274 101 201 219 131 198 203 192 184 188 188 189 184 184 183 188 190 188 184 179 179 181 184 181 172 174 179 180 181 179 178 178 179 183 189 190 189 184 184 184 185 188 192 194 199 197 197 204 206 211 204 209 210 211 207 214 210 212 211 215 211 210 209 218 223 226 229 236 253 253 247 247 259 252 258 275 272 213 208 227 261
193 178 175 167 160 180 193 189 267 229 199 100 171 176 240 359 275 128 214 210 201 219 213 185 178 183 183 179 175 175 181 181 186 183 185 181 179 185 185 177 180 185 186 181 180 179 178 181 181 186 189 189 187 187 188 187 190 188 188 192 194 191 199 204 207 212 207 208 205 213 214 215 212 215 210 214 217 209 214 216 218 225 232 240 244 246 245 247 248 258 249 261 251 226 243 252 280
203 206 203 203 179 184 185 187 199 200 151 107 140 164 230 208 112 339 309 288 278 229 249 193 183 187 184 178 159 163 178 180 181 183 187 185 184 184 182 183 187 187 187 184 181 178 175 180 180 187 186 187 190 189 187 191 192 191 189 192 191 190 199 202 207 211 207 205 209 210 213 219 219 214 215 213 212 213 215 215 218 226 228 233 234 236 236 236 243 259 269 268 282 230 236 260 280
180 194 239 233 206 165 219 178 202 180 150 143 174 227 236 253 43 311 291 276 232 198 211 202 186 181 169 157 170 178 182 179 184 187 191 189 186 185 186 186 186 181 183 186 184 178 183 186 184 187 187 184 190 191 191 192 192 189 189 191 192 192 194 200 203 203 209 213 208 211 208 214 224 216 210 204 203 212 210 214 217 225 229 226 222 225 232 233 227 244 256 256 261 240 245 247 268
158 172 203 204 67 157 81 98 7 60 101 213 150 246 210 253 234 208 163 141 163 188 191 192 185 178 169 177 180 178 180 177 175 183 186 183 182 187 190 187 184 182 184 188 187 184 187 184 184 187 189 187 189 192 191 191 190 188 192 195 194 194 196 201 208 209 215 211 214 215 218 219 217 219 215 204 204 200 206 213 218 223 213 219 218 220 222 224 229 238 240 245 257 259 257 264 269
121 197 184 95 40 18 168 198 166 218 223 191 179 219 218 171 233 135 141 149 137 164 180 182 171 171 179 183 176 171 171 167 171 176 177 179 183 186 190 189 185 185 189 192 190 189 183 186 187 186 187 189 191 193 195 192 190 193 193 195 197 198 201 207 212 207 203 199 204 212 217 206 217 219 220 218 202 196 199 205 220 222 222 214 218 218 215 218 222 235 236 242 249 264 265 263 265
207 214 138 192 161 194 155 173 196 195 214 199 213 265 265 217 217 153 188 174 161 165 171 169 172 179 182 176 159 145 137 144 158 169 175 178 182 184 189 189 191 193 194 196 189 182 181 186 192 195 194 193 191 194 197 196 194 197 198 199 198 196 199 205 209 207 198 201 207 201 210 213 213 205 205 208 207 206 202 205 212 219 212 218 219 225 219 221 221 237 236 241 226 228 246 260 262
57 99 176 357 214 180 174 216 190 220 205 197 185 195 240 195 220 186 172 171 168 166 176 182 176 180 178 163 153 145 147 153 157 161 174 177 180 185 188 187 189 191 189 188 185 187 191 191 189 196 194 189 189 194 193 196 198 202 200 196 197 194 195 198 197 199 206 206 204 204 207 205 210 204 207 201 210 209 207 212 212 216 221 221 221 224 224 222 224 239 246 247 230 221 241 253 268
168 188 181 185 318 352 50 79 231 224 198 214 197 212 229 137 47 223 162 171 175 172 174 175 180 176 157 150 150 150 149 144 144 149 152 167 173 181 183 185 191 188 186 187 189 192 193 192 194 192 188 188 190 194 194 196 196 200 199 199 201 198 198 198 202 198 209 208 205 204 205 212 191 203 197 199 204 209 209 214 220 218 223 220 223 230 229 230 230 234 240 251 254 238 245 255 256
187 178 192 189 149 162 188 199 92 254 204 186 195 228 97 81 328 197 174 171 173 172 160 160 167 173 175 168 169 169 157 138 138 139 147 154 161 175 181 181 180 173 175 189 191 187 189 193 190 188 190 195 197 194 195 191 192 194 201 202 206 199 197 196 202 198 208 206 204 200 199 194 202 197 199 202 203 205 208 211 219 217 220 221 215 214 223 221 227 234 242 238 233 235 245 255 264